Location: Unspecified
(0.0000°N, 0.0000°E)
Time: 16:25:29
(UTC+00:00)

Envisat - Pass Details

Date: 18 September 2020
Orbit: 764 x 766 km, 98.1° (Epoch: 19 September)

Event Time Altitude Azimuth Distance (km) Brightness Sun altitude
Rises 18:52:36 0° 207° (SSW) 3,229 6.6 -14.7°
Reaches altitude 10° 18:56:43 10° 240° (WSW) 2,299 6.4 -15.7°
Maximum altitude 18:58:14 11° 257° (WSW) 2,208 6.6 -16.1°
Drops below altitude 10° 18:59:45 10° 275° (W) 2,296 6.8 -16.5°
Sets 19:03:52 0° 308° (NW) 3,217 7.1 -17.5°
